Time,TemperatureF,DewpointF,PressureIn,WindDirection,WindDirectionDegrees,WindSpeedMPH,WindSpeedGustMPH,Humidity,HourlyPrecipIn,Conditions,Clouds,dailyrainin,SoftwareType,DateUTC
2013-08-03 00:00:00,59.0,56.7,29.93,North,0,0.0,0.0,92,0.00,,---,0.00,VWS V14.01,2013-08-03 04:00:00,
2013-08-03 00:01:00,59.0,56.7,29.93,North,360,0.0,0.0,92,0.00,,---,0.00,VWS V14.01,2013-08-03 04:01:00,
2013-08-03 00:02:00,59.0,56.7,29.93,North,360,0.0,0.0,92,0.00,,---,0.00,VWS V14.01,2013-08-03 04:02:00,
2013-08-03 00:07:00,58.7,56.4,29.93,North,360,0.0,0.0,92,0.00,,---,0.00,VWS V14.01,2013-08-03 04:07:00,
2013-08-03 00:10:00,58.7,56.4,29.93,North,0,0.0,0.0,92,0.00,,---,0.00,VWS V14.01,2013-08-03 04:10:00,
2013-08-03 00:12:00,58.6,56.3,29.93,North,360,0.0,0.0,92,0.00,,---,0.00,VWS V14.01,2013-08-03 04:12:00,
2013-08-03 00:17:00,58.4,56.1,29.94,North,360,0.0,0.0,92,0.00,,---,0.00,VWS V14.01,2013-08-03 04:17:00,
2013-08-03 00:20:00,58.3,56.0,29.93,North,0,0.0,0.0,92,0.00,,---,0.00,VWS V14.01,2013-08-03 04:20:00,
2013-08-03 00:22:00,58.3,56.0,29.94,North,360,0.0,0.0,92,0.00,,---,0.00,VWS V14.01,2013-08-03 04:22:00,
2013-08-03 00:27:00,58.3,56.3,29.94,North,360,0.0,0.0,93,0.00,,---,0.00,VWS V14.01,2013-08-03 04:27:00,
2013-08-03 00:30:00,58.1,56.4,29.94,North,0,0.0,0.0,94,0.00,,---,0.00,VWS V14.01,2013-08-03 04:30:00,
2013-08-03 00:32:00,58.1,56.4,29.94,North,360,0.0,0.0,94,0.00,,---,0.00,VWS V14.01,2013-08-03 04:32:00,
2013-08-03 00:38:00,58.1,56.4,29.94,North,360,0.0,0.0,94,0.00,,---,0.00,VWS V14.01,2013-08-03 04:38:00,
2013-08-03 00:40:00,58.0,56.3,29.94,North,0,0.0,0.0,94,0.00,,---,0.00,VWS V14.01,2013-08-03 04:40:00,
2013-08-03 00:42:00,58.0,56.3,29.94,North,360,0.0,0.0,94,0.00,,---,0.00,VWS V14.01,2013-08-03 04:42:00,
2013-08-03 00:48:00,57.8,56.4,29.94,North,360,0.0,0.0,95,0.00,,---,0.00,VWS V14.01,2013-08-03 04:48:00,
2013-08-03 00:50:00,57.8,56.4,29.94,North,0,0.0,0.0,95,0.00,,---,0.00,VWS V14.01,2013-08-03 04:50:00,
2013-08-03 00:53:00,57.8,56.4,29.94,North,360,0.0,0.0,95,0.00,,---,0.00,VWS V14.01,2013-08-03 04:53:00,
2013-08-03 00:58:00,57.6,56.2,29.94,North,360,0.0,0.0,95,0.00,,---,0.00,VWS V14.01,2013-08-03 04:58:00,
2013-08-03 01:00:00,57.6,56.2,29.94,North,0,0.0,0.0,95,0.00,,---,0.00,VWS V14.01,2013-08-03 05:00:00,
2013-08-03 01:03:00,57.5,56.1,29.94,North,360,0.0,0.0,95,0.00,,---,0.00,VWS V14.01,2013-08-03 05:03:00,
2013-08-03 01:08:00,57.3,55.9,29.94,North,360,0.0,0.0,95,0.00,,---,0.00,VWS V14.01,2013-08-03 05:08:00,
2013-08-03 01:10:00,57.3,55.9,29.94,North,0,0.0,0.0,95,0.00,,---,0.00,VWS V14.01,2013-08-03 05:10:00,
2013-08-03 01:13:00,57.2,55.8,29.94,North,360,0.0,0.0,95,0.00,,---,0.00,VWS V14.01,2013-08-03 05:13:00,
2013-08-03 01:18:00,57.0,55.6,29.94,North,360,0.0,0.0,95,0.00,,---,0.00,VWS V14.01,2013-08-03 05:18:00,
2013-08-03 01:20:00,57.0,55.6,29.94,North,0,0.0,0.0,95,0.00,,---,0.00,VWS V14.01,2013-08-03 05:20:00,
2013-08-03 01:23:00,56.9,55.5,29.94,North,360,0.0,0.0,95,0.00,,---,0.00,VWS V14.01,2013-08-03 05:23:00,
2013-08-03 01:27:00,56.9,55.8,29.94,North,360,0.0,0.0,96,0.00,,---,0.00,VWS V14.01,2013-08-03 05:27:00,
2013-08-03 01:30:00,56.9,55.8,29.94,North,0,0.0,0.0,96,0.00,,---,0.00,VWS V14.01,2013-08-03 05:30:00,
2013-08-03 01:33:00,56.7,55.6,29.94,North,360,0.0,0.0,96,0.00,,---,0.00,VWS V14.01,2013-08-03 05:33:00,
2013-08-03 01:38:00,56.6,55.5,29.94,North,360,0.0,0.0,96,0.00,,---,0.00,VWS V14.01,2013-08-03 05:38:00,
2013-08-03 01:40:00,56.6,55.5,29.94,North,0,0.0,0.0,96,0.00,,---,0.00,VWS V14.01,2013-08-03 05:40:00,
2013-08-03 01:43:00,56.6,55.5,29.94,North,360,0.0,0.0,96,0.00,,---,0.00,VWS V14.01,2013-08-03 05:43:00,
2013-08-03 01:48:00,56.6,55.5,29.94,ESE,113,0.0,0.0,96,0.00,,---,0.00,VWS V14.01,2013-08-03 05:48:00,
2013-08-03 01:50:00,56.6,55.5,29.94,North,0,0.0,0.0,96,0.00,,---,0.00,VWS V14.01,2013-08-03 05:50:00,
2013-08-03 01:53:00,56.5,55.4,29.94,ESE,113,0.0,0.0,96,0.00,,---,0.00,VWS V14.01,2013-08-03 05:53:00,
2013-08-03 01:58:00,56.5,55.7,29.94,ESE,113,0.0,0.0,97,0.00,,---,0.00,VWS V14.01,2013-08-03 05:58:00,
2013-08-03 02:00:00,56.5,55.7,29.95,North,0,0.0,0.0,97,0.00,,---,0.00,VWS V14.01,2013-08-03 06:00:00,
2013-08-03 02:03:00,56.5,55.7,29.94,ESE,113,0.0,0.0,97,0.00,,---,0.00,VWS V14.01,2013-08-03 06:03:00,
2013-08-03 02:08:00,56.2,55.1,29.94,ESE,112,0.0,0.0,96,0.00,,---,0.00,VWS V14.01,2013-08-03 06:08:00,
2013-08-03 02:10:00,56.2,55.1,29.94,North,0,0.0,0.0,96,0.00,,---,0.00,VWS V14.01,2013-08-03 06:10:00,
2013-08-03 02:13:00,56.0,54.9,29.95,ESE,113,0.0,0.0,96,0.00,,---,0.00,VWS V14.01,2013-08-03 06:13:00,
2013-08-03 02:18:00,55.9,54.8,29.94,ESE,112,0.0,0.0,96,0.00,,---,0.00,VWS V14.01,2013-08-03 06:18:00,
2013-08-03 02:20:00,55.9,54.8,29.94,North,0,0.0,0.0,96,0.00,,---,0.00,VWS V14.01,2013-08-03 06:20:00,
2013-08-03 02:23:00,55.7,54.6,29.94,ESE,112,0.0,0.0,96,0.00,,---,0.00,VWS V14.01,2013-08-03 06:23:00,
2013-08-03 02:28:00,55.7,54.9,29.94,ESE,113,0.0,0.0,97,0.00,,---,0.00,VWS V14.01,2013-08-03 06:28:00,
2013-08-03 02:30:00,55.7,54.9,29.94,North,0,0.0,0.0,97,0.00,,---,0.00,VWS V14.01,2013-08-03 06:30:00,
2013-08-03 02:33:00,55.6,54.8,29.94,ESE,112,0.0,0.0,97,0.00,,---,0.00,VWS V14.01,2013-08-03 06:33:00,
2013-08-03 02:38:00,55.6,54.8,29.95,ESE,112,0.0,0.0,97,0.00,,---,0.00,VWS V14.01,2013-08-03 06:38:00,
2013-08-03 02:40:00,55.4,54.6,29.94,North,0,0.0,0.0,97,0.00,,---,0.00,VWS V14.01,2013-08-03 06:40:00,
2013-08-03 02:43:00,55.4,54.6,29.95,ESE,112,0.0,0.0,97,0.00,,---,0.00,VWS V14.01,2013-08-03 06:43:00,
2013-08-03 02:48:00,55.4,54.6,29.94,SE,144,0.0,0.0,97,0.00,,---,0.00,VWS V14.01,2013-08-03 06:48:00,
2013-08-03 02:50:00,55.6,54.8,29.94,North,0,0.0,0.0,97,0.00,,---,0.00,VWS V14.01,2013-08-03 06:50:00,
2013-08-03 02:53:00,55.6,54.8,29.95,SE,144,0.0,0.0,97,0.00,,---,0.00,VWS V14.01,2013-08-03 06:53:00,
2013-08-03 02:58:00,55.4,54.6,29.95,SE,144,0.0,0.0,97,0.00,,---,0.00,VWS V14.01,2013-08-03 06:58:00,
2013-08-03 03:00:00,55.4,54.6,29.95,North,0,0.0,0.0,97,0.00,,---,0.00,VWS V14.01,2013-08-03 07:00:00,
2013-08-03 03:03:00,55.4,54.6,29.95,SE,144,0.0,0.0,97,0.00,,---,0.00,VWS V14.01,2013-08-03 07:03:00,
2013-08-03 03:08:00,55.4,54.6,29.95,SE,144,0.0,0.0,97,0.00,,---,0.00,VWS V14.01,2013-08-03 07:08:00,
2013-08-03 03:10:00,55.4,54.6,29.95,North,0,0.0,0.0,97,0.00,,---,0.00,VWS V14.01,2013-08-03 07:10:00,
2013-08-03 03:13:00,55.6,55.0,29.95,SE,144,0.0,0.0,98,0.00,,---,0.00,VWS V14.01,2013-08-03 07:13:00,
2013-08-03 03:18:00,55.6,55.0,29.95,SSE,159,0.0,0.0,98,0.00,,---,0.00,VWS V14.01,2013-08-03 07:18:00,
2013-08-03 03:20:00,55.6,55.0,29.95,North,0,0.0,0.0,98,0.00,,---,0.00,VWS V14.01,2013-08-03 07:20:00,
2013-08-03 03:23:00,55.6,55.0,29.95,SSE,155,0.0,0.0,98,0.00,,---,0.00,VWS V14.01,2013-08-03 07:23:00,
2013-08-03 03:28:00,55.4,54.8,29.95,SE,142,0.0,0.0,98,0.00,,---,0.00,VWS V14.01,2013-08-03 07:28:00,
2013-08-03 03:30:00,55.4,54.8,29.95,North,0,0.0,0.0,98,0.00,,---,0.00,VWS V14.01,2013-08-03 07:30:00,
2013-08-03 03:33:00,55.3,54.8,29.95,SE,142,0.0,0.0,98,0.00,,---,0.00,VWS V14.01,2013-08-03 07:33:00,
2013-08-03 03:38:00,55.3,54.8,29.95,SE,142,0.0,0.0,98,0.00,,---,0.00,VWS V14.01,2013-08-03 07:38:00,
2013-08-03 03:40:00,55.3,54.8,29.95,North,0,0.0,0.0,98,0.00,,---,0.00,VWS V14.01,2013-08-03 07:40:00,
2013-08-03 03:43:00,55.1,54.5,29.95,SE,142,0.0,0.0,98,0.00,,---,0.00,VWS V14.01,2013-08-03 07:43:00,
2013-08-03 03:48:00,55.1,54.5,29.95,SE,143,0.0,0.0,98,0.00,,---,0.00,VWS V14.01,2013-08-03 07:48:00,
2013-08-03 03:50:00,55.1,54.5,29.95,North,0,0.0,0.0,98,0.00,,---,0.00,VWS V14.01,2013-08-03 07:50:00,
2013-08-03 03:53:00,55.0,54.5,29.96,SE,143,0.0,0.0,98,0.00,,---,0.00,VWS V14.01,2013-08-03 07:53:00,
2013-08-03 03:58:00,55.0,54.5,29.96,SE,144,0.0,0.0,98,0.00,,---,0.00,VWS V14.01,2013-08-03 07:58:00,
2013-08-03 04:00:00,55.0,54.5,29.96,North,0,0.0,0.0,98,0.00,,---,0.00,VWS V14.01,2013-08-03 08:00:00,
2013-08-03 04:03:00,54.8,54.2,29.96,SE,145,0.0,0.0,98,0.00,,---,0.00,VWS V14.01,2013-08-03 08:03:00,
2013-08-03 04:08:00,54.8,54.2,29.96,SE,145,0.0,0.0,98,0.00,,---,0.00,VWS V14.01,2013-08-03 08:08:00,
2013-08-03 04:10:00,54.8,54.2,29.96,North,0,0.0,0.0,98,0.00,,---,0.00,VWS V14.01,2013-08-03 08:10:00,
2013-08-03 04:13:00,54.8,54.2,29.96,SE,145,0.0,0.0,98,0.00,,---,0.00,VWS V14.01,2013-08-03 08:13:00,
2013-08-03 04:18:00,54.7,54.2,29.96,SE,145,0.0,0.0,98,0.00,,---,0.00,VWS V14.01,2013-08-03 08:18:00,
2013-08-03 04:20:00,54.7,54.2,29.96,North,0,0.0,0.0,98,0.00,,---,0.00,VWS V14.01,2013-08-03 08:20:00,
2013-08-03 04:23:00,54.7,54.2,29.96,SE,145,0.0,0.0,98,0.00,,---,0.00,VWS V14.01,2013-08-03 08:23:00,
2013-08-03 04:28:00,54.7,54.2,29.96,SE,145,0.0,0.0,98,0.00,,---,0.00,VWS V14.01,2013-08-03 08:28:00,
2013-08-03 04:30:00,54.7,54.2,29.96,North,0,0.0,0.0,98,0.00,,---,0.00,VWS V14.01,2013-08-03 08:30:00,
2013-08-03 04:33:00,54.7,54.2,29.96,SE,145,0.0,0.0,98,0.00,,---,0.00,VWS V14.01,2013-08-03 08:33:00,
2013-08-03 04:38:00,54.5,54.0,29.96,SE,145,0.0,0.0,98,0.00,,---,0.00,VWS V14.01,2013-08-03 08:38:00,
2013-08-03 04:40:00,54.5,54.0,29.96,North,0,0.0,0.0,98,0.00,,---,0.00,VWS V14.01,2013-08-03 08:40:00,
2013-08-03 04:43:00,54.5,54.0,29.96,SE,145,0.0,0.0,98,0.00,,---,0.00,VWS V14.01,2013-08-03 08:43:00,
2013-08-03 04:48:00,54.4,53.8,29.96,SE,145,0.0,0.0,98,0.00,,---,0.00,VWS V14.01,2013-08-03 08:48:00,
2013-08-03 04:50:00,54.4,53.8,29.96,North,0,0.0,0.0,98,0.00,,---,0.00,VWS V14.01,2013-08-03 08:50:00,
2013-08-03 04:53:00,54.4,53.8,29.96,SE,145,0.0,0.0,98,0.00,,---,0.00,VWS V14.01,2013-08-03 08:53:00,
2013-08-03 04:58:00,54.2,53.7,29.97,SE,145,0.0,0.0,98,0.00,,---,0.00,VWS V14.01,2013-08-03 08:58:00,
2013-08-03 05:00:00,54.2,53.7,29.97,North,0,0.0,0.0,98,0.00,,---,0.00,VWS V14.01,2013-08-03 09:00:00,
2013-08-03 05:04:00,54.2,53.7,29.97,SE,145,0.0,0.0,98,0.00,,---,0.00,VWS V14.01,2013-08-03 09:04:00,
2013-08-03 05:09:00,54.1,53.5,29.97,SE,145,0.0,0.0,98,0.00,,---,0.00,VWS V14.01,2013-08-03 09:09:00,
2013-08-03 05:10:00,54.1,53.5,29.97,North,0,0.0,0.0,98,0.00,,---,0.00,VWS V14.01,2013-08-03 09:10:00,
2013-08-03 05:14:00,54.1,53.5,29.97,SE,145,0.0,0.0,98,0.00,,---,0.00,VWS V14.01,2013-08-03 09:14:00,
2013-08-03 05:19:00,53.9,53.3,29.97,SE,145,0.0,0.0,98,0.00,,---,0.00,VWS V14.01,2013-08-03 09:19:00,
2013-08-03 05:20:00,53.9,53.3,29.97,North,0,0.0,0.0,98,0.00,,---,0.00,VWS V14.01,2013-08-03 09:20:00,
2013-08-03 05:24:00,53.9,53.3,29.97,SE,145,0.0,0.0,98,0.00,,---,0.00,VWS V14.01,2013-08-03 09:24:00,
2013-08-03 05:28:00,53.9,53.3,29.97,SE,145,0.0,0.0,98,0.00,,---,0.00,VWS V14.01,2013-08-03 09:28:00,
2013-08-03 05:30:00,53.9,53.3,29.97,North,0,0.0,0.0,98,0.00,,---,0.00,VWS V14.01,2013-08-03 09:30:00,
2013-08-03 05:33:00,53.9,53.3,29.98,SE,145,0.0,0.0,98,0.00,,---,0.00,VWS V14.01,2013-08-03 09:33:00,
2013-08-03 05:38:00,53.8,53.2,29.98,SE,145,0.0,0.0,98,0.00,,---,0.00,VWS V14.01,2013-08-03 09:38:00,
2013-08-03 05:40:00,53.8,53.2,29.98,North,0,0.0,0.0,98,0.00,,---,0.00,VWS V14.01,2013-08-03 09:40:00,
2013-08-03 05:44:00,53.8,53.2,29.98,SE,145,0.0,0.0,98,0.00,,---,0.00,VWS V14.01,2013-08-03 09:44:00,
2013-08-03 05:49:00,53.6,53.0,29.98,SE,145,0.0,0.0,98,0.00,,---,0.00,VWS V14.01,2013-08-03 09:49:00,
2013-08-03 05:50:00,53.6,53.0,29.98,North,0,0.0,0.0,98,0.00,,---,0.00,VWS V14.01,2013-08-03 09:50:00,
2013-08-03 05:54:00,53.5,53.0,29.98,SE,145,0.0,0.0,98,0.00,,---,0.00,VWS V14.01,2013-08-03 09:54:00,
2013-08-03 05:59:00,53.5,53.0,29.98,SE,145,0.0,0.0,98,0.00,,---,0.00,VWS V14.01,2013-08-03 09:59:00,
2013-08-03 06:00:00,53.5,53.0,29.98,North,0,0.0,0.0,98,0.00,,---,0.00,VWS V14.01,2013-08-03 10:00:00,
2013-08-03 06:04:00,53.3,52.8,29.98,SE,145,0.0,0.0,98,0.00,,---,0.00,VWS V14.01,2013-08-03 10:04:00,
2013-08-03 06:09:00,53.2,52.7,29.99,SE,145,0.0,0.0,98,0.00,,---,0.00,VWS V14.01,2013-08-03 10:09:00,
2013-08-03 06:10:00,53.1,52.5,29.99,North,0,0.0,0.0,98,0.00,,---,0.00,VWS V14.01,2013-08-03 10:10:00,
2013-08-03 06:14:00,52.9,52.3,29.99,SE,145,0.0,0.0,98,0.00,,---,0.00,VWS V14.01,2013-08-03 10:14:00,
2013-08-03 06:19:00,52.8,52.2,29.99,SE,145,0.0,0.0,98,0.00,,---,0.00,VWS V14.01,2013-08-03 10:19:00,
2013-08-03 06:20:00,52.8,52.2,29.99,North,0,0.0,0.0,98,0.00,,---,0.00,VWS V14.01,2013-08-03 10:20:00,
2013-08-03 06:24:00,52.8,52.2,29.99,SE,145,0.0,0.0,98,0.00,,---,0.00,VWS V14.01,2013-08-03 10:24:00,
2013-08-03 06:29:00,52.6,52.0,29.99,SE,145,0.0,0.0,98,0.00,,---,0.00,VWS V14.01,2013-08-03 10:29:00,
2013-08-03 06:30:00,52.6,52.0,29.99,North,0,0.0,0.0,98,0.00,,---,0.00,VWS V14.01,2013-08-03 10:30:00,
2013-08-03 06:34:00,52.6,52.0,29.99,SE,145,0.0,0.0,98,0.00,,---,0.00,VWS V14.01,2013-08-03 10:34:00,
2013-08-03 06:39:00,52.8,52.2,29.99,SE,145,0.0,0.0,98,0.00,,---,0.00,VWS V14.01,2013-08-03 10:39:00,
2013-08-03 06:40:00,52.8,52.2,29.99,North,0,0.0,0.0,98,0.00,,---,0.00,VWS V14.01,2013-08-03 10:40:00,
2013-08-03 06:44:00,52.8,52.2,29.99,SE,145,0.0,0.0,98,0.00,,---,0.00,VWS V14.01,2013-08-03 10:44:00,
2013-08-03 06:49:00,52.6,52.0,29.99,SE,145,0.0,0.0,98,0.00,,---,0.00,VWS V14.01,2013-08-03 10:49:00,
2013-08-03 06:50:00,52.6,52.0,29.99,North,0,0.0,0.0,98,0.00,,---,0.00,VWS V14.01,2013-08-03 10:50:00,
2013-08-03 06:54:00,52.5,52.0,29.99,SE,145,0.0,0.0,98,0.00,,---,0.00,VWS V14.01,2013-08-03 10:54:00,
2013-08-03 06:59:00,52.5,52.0,30.00,SE,145,0.0,0.0,98,0.00,,---,0.00,VWS V14.01,2013-08-03 10:59:00,
2013-08-03 07:00:00,52.6,52.0,30.00,North,0,0.0,0.0,98,0.00,,---,0.00,VWS V14.01,2013-08-03 11:00:00,
2013-08-03 07:04:00,52.6,52.0,30.00,SE,145,0.0,0.0,98,0.00,,---,0.00,VWS V14.01,2013-08-03 11:04:00,
2013-08-03 07:09:00,52.6,52.0,30.00,SE,145,0.0,0.0,98,0.00,,---,0.00,VWS V14.01,2013-08-03 11:09:00,
2013-08-03 07:10:00,52.6,52.0,30.00,North,0,0.0,0.0,98,0.00,,---,0.00,VWS V14.01,2013-08-03 11:10:00,
2013-08-03 07:14:00,52.8,52.2,30.00,SE,145,0.0,0.0,98,0.00,,---,0.00,VWS V14.01,2013-08-03 11:14:00,
2013-08-03 07:19:00,52.8,52.2,30.00,SE,145,0.0,0.0,98,0.00,,---,0.00,VWS V14.01,2013-08-03 11:19:00,
2013-08-03 07:20:00,52.8,52.2,30.00,North,0,0.0,0.0,98,0.00,,---,0.00,VWS V14.01,2013-08-03 11:20:00,
2013-08-03 07:24:00,52.9,52.6,30.00,SE,145,0.0,0.0,99,0.00,,---,0.00,VWS V14.01,2013-08-03 11:24:00,
2013-08-03 07:29:00,53.1,52.8,30.00,SE,145,0.0,0.0,99,0.00,,---,0.00,VWS V14.01,2013-08-03 11:29:00,
2013-08-03 07:30:00,53.1,52.8,30.00,North,0,0.0,0.0,99,0.00,,---,0.00,VWS V14.01,2013-08-03 11:30:00,
2013-08-03 07:34:00,53.2,52.9,30.00,SSE,151,0.0,0.0,99,0.00,,---,0.00,VWS V14.01,2013-08-03 11:34:00,
2013-08-03 07:39:00,53.5,53.2,30.00,ESE,117,0.0,0.0,99,0.00,,---,0.00,VWS V14.01,2013-08-03 11:39:00,
2013-08-03 07:40:00,53.6,53.3,30.00,North,0,0.0,0.0,99,0.00,,---,0.00,VWS V14.01,2013-08-03 11:40:00,
2013-08-03 07:44:00,54.2,53.9,30.00,NE,49,0.0,0.0,99,0.00,,---,0.00,VWS V14.01,2013-08-03 11:44:00,
2013-08-03 07:49:00,54.8,54.5,30.00,NE,51,0.0,0.0,99,0.00,,---,0.00,VWS V14.01,2013-08-03 11:49:00,
2013-08-03 07:50:00,55.0,54.7,30.00,North,0,0.0,0.0,99,0.00,,---,0.00,VWS V14.01,2013-08-03 11:50:00,
2013-08-03 07:54:00,55.6,55.3,30.00,WNW,298,0.0,0.0,99,0.00,,---,0.00,VWS V14.01,2013-08-03 11:54:00,
2013-08-03 07:59:00,56.2,55.9,30.00,WNW,298,0.0,0.0,99,0.00,,---,0.00,VWS V14.01,2013-08-03 11:59:00,
2013-08-03 08:00:00,56.3,56.0,30.00,North,0,0.0,0.0,99,0.00,,---,0.00,VWS V14.01,2013-08-03 12:00:00,
2013-08-03 08:04:00,56.6,56.3,30.00,WNW,298,0.0,0.0,99,0.00,,---,0.00,VWS V14.01,2013-08-03 12:04:00,
2013-08-03 08:09:00,57.0,56.7,30.00,SW,236,0.0,0.0,99,0.00,,---,0.00,VWS V14.01,2013-08-03 12:09:00,
2013-08-03 08:10:00,57.2,56.9,30.00,North,0,0.0,0.0,99,0.00,,---,0.00,VWS V14.01,2013-08-03 12:10:00,
2013-08-03 08:14:00,57.5,57.2,30.00,SW,236,0.0,0.0,99,0.00,,---,0.00,VWS V14.01,2013-08-03 12:14:00,
2013-08-03 08:19:00,58.0,57.7,30.00,SW,236,0.0,0.0,99,0.00,,---,0.00,VWS V14.01,2013-08-03 12:19:00,
2013-08-03 08:20:00,58.0,57.7,30.00,North,0,0.0,0.0,99,0.00,,---,0.00,VWS V14.01,2013-08-03 12:20:00,
2013-08-03 08:24:00,58.3,58.0,30.01,SW,236,0.0,0.0,99,0.00,,---,0.00,VWS V14.01,2013-08-03 12:24:00,
2013-08-03 08:29:00,58.4,58.1,30.01,WSW,238,0.0,0.0,99,0.00,,---,0.00,VWS V14.01,2013-08-03 12:29:00,
2013-08-03 08:30:00,58.6,58.3,30.01,North,0,0.0,0.0,99,0.00,,---,0.00,VWS V14.01,2013-08-03 12:30:00,
2013-08-03 08:34:00,58.9,58.6,30.01,West,277,0.0,0.0,99,0.00,,---,0.00,VWS V14.01,2013-08-03 12:34:00,
2013-08-03 08:39:00,59.3,59.0,30.01,West,275,0.0,0.0,99,0.00,,---,0.00,VWS V14.01,2013-08-03 12:39:00,
2013-08-03 08:40:00,59.3,59.0,30.01,North,0,0.0,0.0,99,0.00,,---,0.00,VWS V14.01,2013-08-03 12:40:00,
2013-08-03 08:44:00,59.8,59.5,30.00,NNW,337,0.0,0.0,99,0.00,,---,0.00,VWS V14.01,2013-08-03 12:44:00,
2013-08-03 08:49:00,60.1,59.5,30.00,NW,309,0.0,0.0,98,0.00,,---,0.00,VWS V14.01,2013-08-03 12:49:00,
2013-08-03 08:50:00,60.1,59.2,30.00,North,0,0.0,0.0,97,0.00,,---,0.00,VWS V14.01,2013-08-03 12:50:00,
2013-08-03 08:54:00,60.7,59.3,30.01,NNW,331,0.0,0.0,95,0.00,,---,0.00,VWS V14.01,2013-08-03 12:54:00,
2013-08-03 08:59:00,61.3,58.0,30.01,WNW,288,0.0,0.0,89,0.00,,---,0.00,VWS V14.01,2013-08-03 12:59:00,
2013-08-03 09:00:00,61.5,58.2,30.01,North,0,0.0,0.0,89,0.00,,---,0.00,VWS V14.01,2013-08-03 13:00:00,
2013-08-03 09:04:00,62.1,56.9,30.01,NE,49,0.0,0.0,83,0.00,,---,0.00,VWS V14.01,2013-08-03 13:04:00,
2013-08-03 09:09:00,62.9,56.6,30.01,NNW,342,0.0,0.0,80,0.00,,---,0.00,VWS V14.01,2013-08-03 13:09:00,
2013-08-03 09:10:00,62.9,56.6,30.01,North,0,0.0,0.0,80,0.00,,---,0.00,VWS V14.01,2013-08-03 13:10:00,
2013-08-03 09:14:00,63.2,55.9,30.01,NNW,327,0.0,0.0,77,0.00,,---,0.00,VWS V14.01,2013-08-03 13:14:00,
2013-08-03 09:20:00,63.5,56.5,30.01,NNW,331,0.0,0.0,78,0.00,,---,0.00,VWS V14.01,2013-08-03 13:20:00,
2013-08-03 09:25:00,63.5,55.8,30.01,NNW,328,0.0,0.0,76,0.00,,---,0.00,VWS V14.01,2013-08-03 13:25:00,
2013-08-03 09:30:00,63.4,55.7,30.01,NW,320,0.0,0.0,76,0.00,,---,0.00,VWS V14.01,2013-08-03 13:30:00,
2013-08-03 09:34:00,63.7,56.4,30.01,North,349,0.0,0.0,77,0.00,,---,0.00,VWS V14.01,2013-08-03 13:34:00,
2013-08-03 09:40:00,64.0,56.3,30.01,NW,326,0.0,0.0,76,0.00,,---,0.00,VWS V14.01,2013-08-03 13:40:00,
2013-08-03 09:45:00,64.0,56.3,30.01,NW,315,0.0,0.0,76,0.00,,---,0.00,VWS V14.01,2013-08-03 13:45:00,
2013-08-03 09:50:00,64.3,56.2,30.01,North,350,0.0,0.0,75,0.00,,---,0.00,VWS V14.01,2013-08-03 13:50:00,
2013-08-03 09:55:00,64.5,56.4,30.01,NNW,348,0.0,0.0,75,0.00,,---,0.00,VWS V14.01,2013-08-03 13:55:00,
2013-08-03 10:00:00,64.0,54.8,30.01,North,350,0.0,0.0,72,0.00,,---,0.00,VWS V14.01,2013-08-03 14:00:00,
2013-08-03 10:05:00,63.7,55.3,30.01,NW,311,0.0,0.0,74,0.00,,---,0.00,VWS V14.01,2013-08-03 14:05:00,
2013-08-03 10:10:00,64.3,56.6,30.01,NNW,340,0.0,0.0,76,0.00,,---,0.00,VWS V14.01,2013-08-03 14:10:00,
2013-08-03 10:15:00,64.8,56.3,30.01,NNW,346,0.0,0.0,74,0.00,,---,0.00,VWS V14.01,2013-08-03 14:15:00,
2013-08-03 10:20:00,65.0,54.6,30.01,ENE,57,0.0,0.0,69,0.00,,---,0.00,VWS V14.01,2013-08-03 14:20:00,
2013-08-03 10:25:00,66.0,56.7,30.01,NNW,347,0.0,0.0,72,0.00,,---,0.00,VWS V14.01,2013-08-03 14:25:00,
2013-08-03 10:30:00,66.0,55.5,30.02,North,5,0.0,0.0,69,0.00,,---,0.00,VWS V14.01,2013-08-03 14:30:00,
2013-08-03 10:34:00,65.3,54.5,30.02,North,350,0.0,0.0,68,0.00,,---,0.00,VWS V14.01,2013-08-03 14:34:00,
2013-08-03 10:40:00,65.2,55.6,30.02,NE,36,0.0,0.0,71,0.00,,---,0.00,VWS V14.01,2013-08-03 14:40:00,
2013-08-03 10:45:00,65.0,55.8,30.02,WNW,284,0.0,0.0,72,0.00,,---,0.00,VWS V14.01,2013-08-03 14:45:00,
2013-08-03 10:50:00,64.8,55.2,30.02,NNW,335,0.0,0.0,71,0.00,,---,0.00,VWS V14.01,2013-08-03 14:50:00,
2013-08-03 10:55:00,64.7,55.1,30.02,NNW,327,0.0,0.0,71,0.00,,---,0.00,VWS V14.01,2013-08-03 14:55:00,
2013-08-03 11:00:00,64.5,53.7,30.02,NW,325,0.0,0.0,68,0.00,,---,0.00,VWS V14.01,2013-08-03 15:00:00,
2013-08-03 11:05:00,64.5,52.9,30.02,North,9,0.0,0.0,66,0.00,,---,0.00,VWS V14.01,2013-08-03 15:05:00,
2013-08-03 11:10:00,64.8,53.6,30.02,West,269,0.0,0.0,67,0.00,,---,0.00,VWS V14.01,2013-08-03 15:10:00,
2013-08-03 11:15:00,65.3,53.7,30.02,North,360,0.0,0.0,66,0.00,,---,0.00,VWS V14.01,2013-08-03 15:15:00,
2013-08-03 11:20:00,65.3,53.2,30.03,NW,306,0.0,0.0,65,0.00,,---,0.00,VWS V14.01,2013-08-03 15:20:00,
2013-08-03 11:25:00,65.6,54.0,30.03,WSW,242,0.0,0.0,66,0.00,,---,0.00,VWS V14.01,2013-08-03 15:25:00,
2013-08-03 11:30:00,65.8,53.3,30.03,North,5,0.0,0.0,64,0.00,,---,0.00,VWS V14.01,2013-08-03 15:30:00,
2013-08-03 11:35:00,65.8,53.7,30.03,NW,304,0.0,0.0,65,0.00,,---,0.00,VWS V14.01,2013-08-03 15:35:00,
2013-08-03 11:40:00,65.8,53.3,30.03,North,349,0.0,0.0,64,0.00,,---,0.00,VWS V14.01,2013-08-03 15:40:00,
2013-08-03 11:45:00,65.6,52.2,30.03,North,5,0.0,0.0,62,0.00,,---,0.00,VWS V14.01,2013-08-03 15:45:00,
2013-08-03 11:50:00,65.8,52.4,30.03,NW,309,0.0,0.0,62,0.00,,---,0.00,VWS V14.01,2013-08-03 15:50:00,
2013-08-03 11:55:00,65.8,52.4,30.03,North,5,0.0,0.0,62,0.00,,---,0.00,VWS V14.01,2013-08-03 15:55:00,
2013-08-03 12:00:00,66.3,52.5,30.03,NW,309,0.0,0.0,61,0.00,,---,0.00,VWS V14.01,2013-08-03 16:00:00,
2013-08-03 12:05:00,66.6,52.3,30.04,NW,317,0.0,0.0,60,0.00,,---,0.00,VWS V14.01,2013-08-03 16:05:00,
2013-08-03 12:10:00,66.8,53.4,30.03,West,272,0.0,0.0,62,0.00,,---,0.00,VWS V14.01,2013-08-03 16:10:00,
2013-08-03 12:15:00,66.6,53.6,30.04,West,269,0.0,0.0,63,0.00,,---,0.00,VWS V14.01,2013-08-03 16:15:00,
2013-08-03 12:20:00,66.3,53.8,30.03,NNW,335,0.0,0.0,64,0.00,,---,0.00,VWS V14.01,2013-08-03 16:20:00,
2013-08-03 12:25:00,66.4,54.7,30.04,WSW,252,0.0,0.0,66,0.00,,---,0.00,VWS V14.01,2013-08-03 16:25:00,
2013-08-03 12:30:00,66.6,53.6,30.04,WSW,257,0.0,0.0,63,0.00,,---,0.00,VWS V14.01,2013-08-03 16:30:00,
2013-08-03 12:35:00,66.8,52.9,30.04,North,5,0.0,0.0,61,0.00,,---,0.00,VWS V14.01,2013-08-03 16:35:00,
2013-08-03 12:40:00,66.6,53.2,30.04,WNW,282,0.0,0.0,62,0.00,,---,0.00,VWS V14.01,2013-08-03 16:40:00,
2013-08-03 12:45:00,66.3,54.2,30.04,NW,311,0.0,0.0,65,0.00,,---,0.00,VWS V14.01,2013-08-03 16:45:00,
2013-08-03 12:50:00,66.6,53.6,30.05,NNW,348,0.0,0.0,63,0.00,,---,0.00,VWS V14.01,2013-08-03 16:50:00,
2013-08-03 12:55:00,66.4,53.4,30.05,West,281,0.0,0.0,63,0.00,,---,0.00,VWS V14.01,2013-08-03 16:55:00,
2013-08-03 13:00:00,66.1,54.0,30.05,NNW,327,0.0,0.0,65,0.00,,---,0.00,VWS V14.01,2013-08-03 17:00:00,
2013-08-03 13:05:00,66.0,53.9,30.05,NNW,331,0.0,0.0,65,0.00,,---,0.00,VWS V14.01,2013-08-03 17:05:00,
2013-08-03 13:10:00,66.1,55.2,30.05,NW,320,0.0,0.0,68,0.00,,---,0.00,VWS V14.01,2013-08-03 17:10:00,
2013-08-03 13:15:00,66.4,53.9,30.05,NW,325,0.0,0.0,64,0.00,,---,0.00,VWS V14.01,2013-08-03 17:15:00,
2013-08-03 13:20:00,66.4,54.3,30.05,WSW,239,0.0,0.0,65,0.00,,---,0.00,VWS V14.01,2013-08-03 17:20:00,
2013-08-03 13:25:00,66.6,55.3,30.05,SE,141,0.0,0.0,67,0.00,,---,0.00,VWS V14.01,2013-08-03 17:25:00,
2013-08-03 13:30:00,66.9,55.6,30.05,ENE,60,0.0,0.0,67,0.00,,---,0.00,VWS V14.01,2013-08-03 17:30:00,
2013-08-03 13:35:00,66.8,55.1,30.05,NNW,340,0.0,0.0,66,0.00,,---,0.00,VWS V14.01,2013-08-03 17:35:00,
2013-08-03 13:40:00,66.8,55.9,30.06,NNW,335,0.0,0.0,68,0.00,,---,0.00,VWS V14.01,2013-08-03 17:40:00,
2013-08-03 13:45:00,66.4,54.3,30.06,NNW,331,0.0,0.0,65,0.00,,---,0.00,VWS V14.01,2013-08-03 17:45:00,
2013-08-03 13:50:00,66.4,55.1,30.06,NW,317,0.0,0.0,67,0.00,,---,0.00,VWS V14.01,2013-08-03 17:50:00,
2013-08-03 13:55:00,66.4,55.9,30.06,North,5,0.0,0.0,69,0.00,,---,0.00,VWS V14.01,2013-08-03 17:55:00,
2013-08-03 14:00:00,66.4,55.5,30.06,NNW,333,0.0,0.0,68,0.00,,---,0.00,VWS V14.01,2013-08-03 18:00:00,
2013-08-03 14:05:00,66.8,55.9,30.06,NNE,17,0.0,0.0,68,0.00,,---,0.00,VWS V14.01,2013-08-03 18:05:00,
2013-08-03 14:10:00,66.8,55.5,30.06,North,5,0.0,0.0,67,0.00,,---,0.00,VWS V14.01,2013-08-03 18:10:00,
2013-08-03 14:15:00,66.8,55.1,30.06,NNW,346,0.0,0.0,66,0.00,,---,0.00,VWS V14.01,2013-08-03 18:15:00,
2013-08-03 14:20:00,66.4,54.7,30.06,West,259,0.0,0.0,66,0.00,,---,0.00,VWS V14.01,2013-08-03 18:20:00,
2013-08-03 14:25:00,66.3,55.0,30.07,North,350,0.0,0.0,67,0.00,,---,0.00,VWS V14.01,2013-08-03 18:25:00,
2013-08-03 14:30:00,66.3,55.4,30.07,North,5,0.0,0.0,68,0.00,,---,0.00,VWS V14.01,2013-08-03 18:30:00,
2013-08-03 14:35:00,66.8,56.7,30.07,North,360,0.0,0.0,70,0.00,,---,0.00,VWS V14.01,2013-08-03 18:35:00,
2013-08-03 14:40:00,67.1,55.8,30.07,NNW,331,0.0,0.0,67,0.00,,---,0.00,VWS V14.01,2013-08-03 18:40:00,
2013-08-03 14:45:00,67.3,55.6,30.07,North,350,0.0,0.0,66,0.00,,---,0.00,VWS V14.01,2013-08-03 18:45:00,
2013-08-03 14:50:00,67.3,55.2,30.07,North,0,0.0,0.0,65,0.00,,---,0.00,VWS V14.01,2013-08-03 18:50:00,
2013-08-03 14:51:00,67.1,54.5,30.07,NNW,331,0.0,0.0,64,0.00,,---,0.00,VWS V14.01,2013-08-03 18:51:00,
2013-08-03 14:56:00,66.8,54.7,30.07,NW,321,0.0,0.0,65,0.00,,---,0.00,VWS V14.01,2013-08-03 18:56:00,
2013-08-03 15:00:00,66.9,55.2,30.07,WSW,250,0.0,0.0,66,0.00,,---,0.00,VWS V14.01,2013-08-03 19:00:00,
2013-08-03 15:06:00,67.1,55.0,30.07,NW,306,0.0,0.0,65,0.00,,---,0.00,VWS V14.01,2013-08-03 19:06:00,
2013-08-03 15:10:00,67.3,55.6,30.07,North,0,0.0,0.0,66,0.00,,---,0.00,VWS V14.01,2013-08-03 19:10:00,
2013-08-03 15:11:00,67.4,56.1,30.07,WNW,282,0.0,0.0,67,0.00,,---,0.00,VWS V14.01,2013-08-03 19:11:00,
2013-08-03 15:16:00,67.6,53.7,30.07,NW,305,0.0,0.0,61,0.00,,---,0.00,VWS V14.01,2013-08-03 19:16:00,
2013-08-03 15:20:00,67.4,53.9,30.06,North,0,0.0,0.0,62,0.00,,---,0.00,VWS V14.01,2013-08-03 19:20:00,
2013-08-03 15:21:00,67.4,54.8,30.06,NNW,328,0.0,0.0,64,0.00,,---,0.00,VWS V14.01,2013-08-03 19:21:00,
2013-08-03 15:26:00,67.4,53.5,30.06,WNW,295,0.0,0.0,61,0.00,,---,0.00,VWS V14.01,2013-08-03 19:26:00,
2013-08-03 15:30:00,67.1,54.1,30.06,North,0,0.0,0.0,63,0.00,,---,0.00,VWS V14.01,2013-08-03 19:30:00,
2013-08-03 15:31:00,67.1,54.5,30.07,North,9,0.0,0.0,64,0.00,,---,0.00,VWS V14.01,2013-08-03 19:31:00,
2013-08-03 15:36:00,67.3,54.3,30.07,NNW,327,0.0,0.0,63,0.00,,---,0.00,VWS V14.01,2013-08-03 19:36:00,
2013-08-03 15:40:00,67.3,54.3,30.07,North,0,0.0,0.0,63,0.00,,---,0.00,VWS V14.01,2013-08-03 19:40:00,
2013-08-03 15:41:00,67.3,54.3,30.07,NNW,338,0.0,0.0,63,0.00,,---,0.00,VWS V14.01,2013-08-03 19:41:00,
2013-08-03 15:46:00,67.6,55.0,30.07,North,360,0.0,0.0,64,0.00,,---,0.00,VWS V14.01,2013-08-03 19:46:00,
2013-08-03 15:50:00,68.1,56.3,30.06,North,0,0.0,0.0,66,0.00,,---,0.00,VWS V14.01,2013-08-03 19:50:00,
2013-08-03 15:51:00,68.3,56.1,30.06,NNW,347,0.0,0.0,65,0.00,,---,0.00,VWS V14.01,2013-08-03 19:51:00,
2013-08-03 15:56:00,68.3,56.1,30.06,NW,317,0.0,0.0,65,0.00,,---,0.00,VWS V14.01,2013-08-03 19:56:00,
2013-08-03 16:00:00,68.4,56.6,30.06,North,0,0.0,0.0,66,0.00,,---,0.00,VWS V14.01,2013-08-03 20:00:00,
2013-08-03 16:01:00,68.4,56.2,30.06,North,360,0.0,0.0,65,0.00,,---,0.00,VWS V14.01,2013-08-03 20:01:00,
2013-08-03 16:06:00,68.4,56.2,30.06,North,360,0.0,0.0,65,0.00,,---,0.00,VWS V14.01,2013-08-03 20:06:00,
2013-08-03 16:10:00,68.3,56.5,30.06,North,0,0.0,0.0,66,0.00,,---,0.00,VWS V14.01,2013-08-03 20:10:00,
2013-08-03 16:11:00,68.3,56.1,30.06,North,360,0.0,0.0,65,0.00,,---,0.00,VWS V14.01,2013-08-03 20:11:00,
2013-08-03 16:16:00,68.1,55.9,30.06,North,360,0.0,0.0,65,0.00,,---,0.00,VWS V14.01,2013-08-03 20:16:00,
2013-08-03 16:20:00,67.9,56.1,30.06,North,0,0.0,0.0,66,0.00,,---,0.00,VWS V14.01,2013-08-03 20:20:00,
2013-08-03 16:21:00,67.9,55.7,30.06,North,360,0.0,0.0,65,0.00,,---,0.00,VWS V14.01,2013-08-03 20:21:00,
2013-08-03 16:26:00,67.9,55.7,30.06,North,9,0.0,0.0,65,0.00,,---,0.00,VWS V14.01,2013-08-03 20:26:00,
2013-08-03 16:30:00,67.6,55.8,30.06,North,0,0.0,0.0,66,0.00,,---,0.00,VWS V14.01,2013-08-03 20:30:00,
2013-08-03 16:31:00,67.4,55.2,30.06,North,360,0.0,0.0,65,0.00,,---,0.00,VWS V14.01,2013-08-03 20:31:00,
2013-08-03 16:36:00,67.3,55.2,30.06,North,360,0.0,0.0,65,0.00,,---,0.00,VWS V14.01,2013-08-03 20:36:00,
2013-08-03 16:40:00,67.3,55.6,30.06,North,0,0.0,0.0,66,0.00,,---,0.00,VWS V14.01,2013-08-03 20:40:00,
2013-08-03 16:41:00,67.3,55.2,30.06,North,360,0.0,0.0,65,0.00,,---,0.00,VWS V14.01,2013-08-03 20:41:00,
2013-08-03 16:46:00,66.9,54.8,30.06,North,360,0.0,0.0,65,0.00,,---,0.00,VWS V14.01,2013-08-03 20:46:00,
2013-08-03 16:50:00,67.3,55.6,30.07,North,0,0.0,0.0,66,0.00,,---,0.00,VWS V14.01,2013-08-03 20:50:00,
2013-08-03 16:51:00,67.4,55.2,30.07,North,360,0.0,0.0,65,0.00,,---,0.00,VWS V14.01,2013-08-03 20:51:00,
2013-08-03 16:56:00,67.6,55.4,30.06,North,360,0.0,0.0,65,0.00,,---,0.00,VWS V14.01,2013-08-03 20:56:00,
2013-08-03 17:00:00,67.8,56.0,30.07,North,0,0.0,0.0,66,0.00,,---,0.00,VWS V14.01,2013-08-03 21:00:00,
2013-08-03 17:01:00,67.6,55.4,30.07,North,360,0.0,0.0,65,0.00,,---,0.00,VWS V14.01,2013-08-03 21:01:00,
2013-08-03 17:06:00,67.6,55.4,30.07,North,360,0.0,0.0,65,0.00,,---,0.00,VWS V14.01,2013-08-03 21:06:00,
2013-08-03 17:10:00,67.4,55.7,30.07,North,0,0.0,0.0,66,0.00,,---,0.00,VWS V14.01,2013-08-03 21:10:00,
2013-08-03 17:11:00,67.6,55.4,30.07,North,360,0.0,0.0,65,0.00,,---,0.00,VWS V14.01,2013-08-03 21:11:00,
2013-08-03 17:16:00,67.1,55.0,30.07,North,360,0.0,0.0,65,0.00,,---,0.00,VWS V14.01,2013-08-03 21:16:00,
2013-08-03 17:20:00,67.3,55.6,30.07,North,0,0.0,0.0,66,0.00,,---,0.00,VWS V14.01,2013-08-03 21:20:00,
2013-08-03 17:22:00,67.1,55.0,30.07,North,360,0.0,0.0,65,0.00,,---,0.00,VWS V14.01,2013-08-03 21:22:00,
2013-08-03 17:27:00,67.4,55.2,30.07,North,360,0.0,0.0,65,0.00,,---,0.00,VWS V14.01,2013-08-03 21:27:00,
2013-08-03 17:30:00,67.3,55.6,30.07,North,0,0.0,0.0,66,0.00,,---,0.00,VWS V14.01,2013-08-03 21:30:00,
2013-08-03 17:32:00,66.9,54.8,30.07,North,360,0.0,0.0,65,0.00,,---,0.00,VWS V14.01,2013-08-03 21:32:00,
2013-08-03 17:37:00,67.8,55.6,30.07,North,5,0.0,0.0,65,0.00,,---,0.00,VWS V14.01,2013-08-03 21:37:00,
2013-08-03 17:40:00,67.6,55.8,30.07,North,0,0.0,0.0,66,0.00,,---,0.00,VWS V14.01,2013-08-03 21:40:00,
2013-08-03 17:42:00,67.4,55.2,30.07,North,5,0.0,0.0,65,0.00,,---,0.00,VWS V14.01,2013-08-03 21:42:00,
2013-08-03 17:47:00,67.3,55.2,30.07,North,360,0.0,0.0,65,0.00,,---,0.00,VWS V14.01,2013-08-03 21:47:00,
2013-08-03 17:50:00,67.1,55.4,30.07,North,0,0.0,0.0,66,0.00,,---,0.00,VWS V14.01,2013-08-03 21:50:00,
2013-08-03 17:52:00,67.1,55.0,30.07,North,360,0.0,0.0,65,0.00,,---,0.00,VWS V14.01,2013-08-03 21:52:00,
2013-08-03 17:57:00,67.1,55.0,30.07,North,360,0.0,0.0,65,0.00,,---,0.00,VWS V14.01,2013-08-03 21:57:00,
2013-08-03 18:00:00,66.9,55.2,30.07,North,0,0.0,0.0,66,0.00,,---,0.00,VWS V14.01,2013-08-03 22:00:00,
2013-08-03 18:02:00,67.1,55.0,30.07,North,360,0.0,0.0,65,0.00,,---,0.00,VWS V14.01,2013-08-03 22:02:00,
2013-08-03 18:07:00,67.3,55.2,30.07,North,360,0.0,0.0,65,0.00,,---,0.00,VWS V14.01,2013-08-03 22:07:00,
2013-08-03 18:10:00,67.8,56.0,30.07,North,0,0.0,0.0,66,0.00,,---,0.00,VWS V14.01,2013-08-03 22:10:00,
2013-08-03 18:12:00,67.9,55.7,30.07,North,360,0.0,0.0,65,0.00,,---,0.00,VWS V14.01,2013-08-03 22:12:00,
2013-08-03 18:17:00,68.1,55.9,30.07,North,360,0.0,0.0,65,0.00,,---,0.00,VWS V14.01,2013-08-03 22:17:00,
2013-08-03 18:20:00,67.9,56.1,30.07,North,0,0.0,0.0,66,0.00,,---,0.00,VWS V14.01,2013-08-03 22:20:00,
2013-08-03 18:22:00,67.4,55.2,30.07,North,360,0.0,0.0,65,0.00,,---,0.00,VWS V14.01,2013-08-03 22:22:00,
2013-08-03 18:27:00,67.8,55.6,30.07,North,360,0.0,0.0,65,0.00,,---,0.00,VWS V14.01,2013-08-03 22:27:00,
2013-08-03 18:30:00,67.9,56.1,30.07,North,0,0.0,0.0,66,0.00,,---,0.00,VWS V14.01,2013-08-03 22:30:00,
2013-08-03 18:32:00,68.1,55.9,30.07,North,360,0.0,0.0,65,0.00,,---,0.00,VWS V14.01,2013-08-03 22:32:00,
2013-08-03 18:37:00,68.4,56.2,30.07,North,360,0.0,0.0,65,0.00,,---,0.00,VWS V14.01,2013-08-03 22:37:00,
2013-08-03 18:40:00,68.8,57.0,30.07,North,0,0.0,0.0,66,0.00,,---,0.00,VWS V14.01,2013-08-03 22:40:00,
2013-08-03 18:42:00,68.9,56.7,30.07,North,360,0.0,0.0,65,0.00,,---,0.00,VWS V14.01,2013-08-03 22:42:00,
2013-08-03 18:47:00,69.1,56.8,30.07,North,360,0.0,0.0,65,0.00,,---,0.00,VWS V14.01,2013-08-03 22:47:00,
2013-08-03 18:50:00,69.1,57.3,30.07,North,0,0.0,0.0,66,0.00,,---,0.00,VWS V14.01,2013-08-03 22:50:00,
2013-08-03 18:52:00,69.3,57.0,30.07,North,360,0.0,0.0,65,0.00,,---,0.00,VWS V14.01,2013-08-03 22:52:00,
2013-08-03 18:57:00,69.3,57.0,30.06,North,360,0.0,0.0,65,0.00,,---,0.00,VWS V14.01,2013-08-03 22:57:00,
2013-08-03 19:00:00,69.3,57.0,30.06,North,0,0.0,0.0,65,0.00,,---,0.00,VWS V14.01,2013-08-03 23:00:00,
2013-08-03 19:02:00,69.3,57.0,30.06,North,360,0.0,0.0,65,0.00,,---,0.00,VWS V14.01,2013-08-03 23:02:00,
2013-08-03 19:07:00,69.8,57.5,30.06,NW,326,0.0,0.0,65,0.00,,---,0.00,VWS V14.01,2013-08-03 23:07:00,
2013-08-03 19:10:00,69.8,56.7,30.07,North,0,0.0,0.0,63,0.00,,---,0.00,VWS V14.01,2013-08-03 23:10:00,
2013-08-03 19:12:00,69.8,56.7,30.06,North,360,0.0,0.0,63,0.00,,---,0.00,VWS V14.01,2013-08-03 23:12:00,
2013-08-03 19:17:00,69.6,56.5,30.07,North,360,0.0,0.0,63,0.00,,---,0.00,VWS V14.01,2013-08-03 23:17:00,
2013-08-03 19:20:00,69.8,57.1,30.07,North,0,0.0,0.0,64,0.00,,---,0.00,VWS V14.01,2013-08-03 23:20:00,
2013-08-03 19:22:00,69.9,57.2,30.07,North,360,0.0,0.0,64,0.00,,---,0.00,VWS V14.01,2013-08-03 23:22:00,
2013-08-03 19:27:00,69.9,56.8,30.07,North,360,0.0,0.0,63,0.00,,---,0.00,VWS V14.01,2013-08-03 23:27:00,
2013-08-03 19:30:00,69.8,56.7,30.07,North,0,0.0,0.0,63,0.00,,---,0.00,VWS V14.01,2013-08-03 23:30:00,
2013-08-03 19:32:00,69.8,56.7,30.07,North,360,0.0,0.0,63,0.00,,---,0.00,VWS V14.01,2013-08-03 23:32:00,
2013-08-03 19:37:00,69.4,56.7,30.07,ESE,105,0.0,0.0,64,0.00,,---,0.00,VWS V14.01,2013-08-03 23:37:00,
2013-08-03 19:40:00,69.1,56.4,30.07,North,0,0.0,0.0,64,0.00,,---,0.00,VWS V14.01,2013-08-03 23:40:00,
2013-08-03 19:42:00,68.9,56.7,30.07,North,360,0.0,0.0,65,0.00,,---,0.00,VWS V14.01,2013-08-03 23:42:00,
2013-08-03 19:47:00,68.1,56.3,30.07,North,360,0.0,0.0,66,0.00,,---,0.00,VWS V14.01,2013-08-03 23:47:00,
2013-08-03 19:50:00,67.9,56.1,30.07,North,0,0.0,0.0,66,0.00,,---,0.00,VWS V14.01,2013-08-03 23:50:00,
2013-08-03 19:52:00,67.6,56.3,30.07,North,360,0.0,0.0,67,0.00,,---,0.00,VWS V14.01,2013-08-03 23:52:00,
2013-08-03 19:57:00,66.9,56.0,30.07,North,360,0.0,0.0,68,0.00,,---,0.00,VWS V14.01,2013-08-03 23:57:00,
2013-08-03 20:00:00,66.9,56.4,30.07,North,0,0.0,0.0,69,0.00,,---,0.00,VWS V14.01,2013-08-04 00:00:00,
2013-08-03 20:02:00,66.8,56.7,30.07,WNW,294,0.0,0.0,70,0.00,,---,0.00,VWS V14.01,2013-08-04 00:02:00,
2013-08-03 20:07:00,66.3,56.6,30.07,North,360,0.0,0.0,71,0.00,,---,0.00,VWS V14.01,2013-08-04 00:07:00,
2013-08-03 20:10:00,66.3,56.2,30.07,North,0,0.0,0.0,70,0.00,,---,0.00,VWS V14.01,2013-08-04 00:10:00,
2013-08-03 20:12:00,65.8,55.8,30.07,North,360,0.0,0.0,70,0.00,,---,0.00,VWS V14.01,2013-08-04 00:12:00,
2013-08-03 20:17:00,65.8,56.5,30.07,North,360,0.0,0.0,72,0.00,,---,0.00,VWS V14.01,2013-08-04 00:17:00,
2013-08-03 20:20:00,65.6,56.0,30.07,North,0,0.0,0.0,71,0.00,,---,0.00,VWS V14.01,2013-08-04 00:20:00,
2013-08-03 20:22:00,65.8,56.5,30.07,North,360,0.0,0.0,72,0.00,,---,0.00,VWS V14.01,2013-08-04 00:22:00,
2013-08-03 20:27:00,65.5,56.2,30.07,NW,321,0.0,0.0,72,0.00,,---,0.00,VWS V14.01,2013-08-04 00:27:00,
2013-08-03 20:30:00,65.5,56.2,30.07,North,0,0.0,0.0,72,0.00,,---,0.00,VWS V14.01,2013-08-04 00:30:00,
2013-08-03 20:32:00,65.2,56.3,30.07,North,360,0.0,0.0,73,0.00,,---,0.00,VWS V14.01,2013-08-04 00:32:00,
2013-08-03 20:37:00,65.2,56.3,30.07,North,360,0.0,0.0,73,0.00,,---,0.00,VWS V14.01,2013-08-04 00:37:00,
2013-08-03 20:40:00,64.8,56.3,30.08,North,0,0.0,0.0,74,0.00,,---,0.00,VWS V14.01,2013-08-04 00:40:00,
2013-08-03 20:42:00,65.2,56.7,30.08,North,360,0.0,0.0,74,0.00,,---,0.00,VWS V14.01,2013-08-04 00:42:00,
2013-08-03 20:47:00,65.0,56.9,30.07,North,360,0.0,0.0,75,0.00,,---,0.00,VWS V14.01,2013-08-04 00:47:00,
2013-08-03 20:50:00,65.0,56.9,30.08,North,0,0.0,0.0,75,0.00,,---,0.00,VWS V14.01,2013-08-04 00:50:00,
2013-08-03 20:52:00,65.0,56.9,30.08,North,360,0.0,0.0,75,0.00,,---,0.00,VWS V14.01,2013-08-04 00:52:00,
2013-08-03 20:57:00,64.8,56.7,30.08,North,360,0.0,0.0,75,0.00,,---,0.00,VWS V14.01,2013-08-04 00:57:00,
2013-08-03 21:00:00,64.8,56.7,30.08,North,0,0.0,0.0,75,0.00,,---,0.00,VWS V14.01,2013-08-04 01:00:00,
2013-08-03 21:02:00,64.8,56.7,30.08,NW,313,0.0,0.0,75,0.00,,---,0.00,VWS V14.01,2013-08-04 01:02:00,
2013-08-03 21:07:00,64.8,55.2,30.08,North,360,0.0,0.0,71,0.00,,---,0.00,VWS V14.01,2013-08-04 01:07:00,
2013-08-03 21:10:00,64.8,54.4,30.08,North,0,0.0,0.0,69,0.00,,---,0.00,VWS V14.01,2013-08-04 01:10:00,
2013-08-03 21:12:00,65.0,54.6,30.08,North,360,0.0,0.0,69,0.00,,---,0.00,VWS V14.01,2013-08-04 01:12:00,
2013-08-03 21:17:00,65.0,54.2,30.08,North,360,0.0,0.0,68,0.00,,---,0.00,VWS V14.01,2013-08-04 01:17:00,
2013-08-03 21:20:00,64.8,54.8,30.08,North,0,0.0,0.0,70,0.00,,---,0.00,VWS V14.01,2013-08-04 01:20:00,
2013-08-03 21:22:00,65.0,55.4,30.08,North,9,0.0,0.0,71,0.00,,---,0.00,VWS V14.01,2013-08-04 01:22:00,
2013-08-03 21:27:00,64.3,54.7,30.08,NNE,20,0.0,0.0,71,0.00,,---,0.00,VWS V14.01,2013-08-04 01:27:00,
2013-08-03 21:30:00,64.0,54.4,30.08,North,0,0.0,0.0,71,0.00,,---,0.00,VWS V14.01,2013-08-04 01:30:00,
2013-08-03 21:33:00,64.0,54.8,30.09,North,360,0.0,0.0,72,0.00,,---,0.00,VWS V14.01,2013-08-04 01:33:00,
2013-08-03 21:38:00,63.7,54.5,30.09,North,360,0.0,0.0,72,0.00,,---,0.00,VWS V14.01,2013-08-04 01:38:00,
2013-08-03 21:40:00,63.7,54.5,30.09,North,0,0.0,0.0,72,0.00,,---,0.00,VWS V14.01,2013-08-04 01:40:00,
2013-08-03 21:43:00,63.5,54.3,30.09,North,360,0.0,0.0,72,0.00,,---,0.00,VWS V14.01,2013-08-04 01:43:00,
2013-08-03 21:48:00,63.5,53.9,30.09,North,360,0.0,0.0,71,0.00,,---,0.00,VWS V14.01,2013-08-04 01:48:00,
2013-08-03 21:50:00,63.4,53.8,30.09,North,0,0.0,0.0,71,0.00,,---,0.00,VWS V14.01,2013-08-04 01:50:00,
2013-08-03 21:53:00,63.4,53.5,30.09,North,360,0.0,0.0,70,0.00,,---,0.00,VWS V14.01,2013-08-04 01:53:00,
2013-08-03 21:58:00,63.1,53.2,30.09,North,360,0.0,0.0,70,0.00,,---,0.00,VWS V14.01,2013-08-04 01:58:00,
2013-08-03 22:00:00,62.9,53.0,30.10,North,0,0.0,0.0,70,0.00,,---,0.00,VWS V14.01,2013-08-04 02:00:00,
2013-08-03 22:03:00,62.9,53.4,30.10,North,11,0.0,0.0,71,0.00,,---,0.00,VWS V14.01,2013-08-04 02:03:00,
2013-08-03 22:08:00,62.6,53.1,30.10,North,360,0.0,0.0,71,0.00,,---,0.00,VWS V14.01,2013-08-04 02:08:00,
2013-08-03 22:10:00,62.6,53.1,30.10,North,0,0.0,0.0,71,0.00,,---,0.00,VWS V14.01,2013-08-04 02:10:00,
2013-08-03 22:13:00,62.4,53.3,30.10,North,360,0.0,0.0,72,0.00,,---,0.00,VWS V14.01,2013-08-04 02:13:00,
2013-08-03 22:18:00,62.3,53.2,30.10,NNW,348,0.0,0.0,72,0.00,,---,0.00,VWS V14.01,2013-08-04 02:18:00,
2013-08-03 22:20:00,62.1,53.0,30.10,North,0,0.0,0.0,72,0.00,,---,0.00,VWS V14.01,2013-08-04 02:20:00,
2013-08-03 22:23:00,62.1,53.0,30.10,North,9,0.0,0.0,72,0.00,,---,0.00,VWS V14.01,2013-08-04 02:23:00,
2013-08-03 22:28:00,61.6,52.9,30.10,North,360,0.0,0.0,73,0.00,,---,0.00,VWS V14.01,2013-08-04 02:28:00,
2013-08-03 22:30:00,61.8,53.4,30.10,North,0,0.0,0.0,74,0.00,,---,0.00,VWS V14.01,2013-08-04 02:30:00,
2013-08-03 22:33:00,61.8,53.1,30.10,North,360,0.0,0.0,73,0.00,,---,0.00,VWS V14.01,2013-08-04 02:33:00,
2013-08-03 22:38:00,61.8,53.4,30.10,North,360,0.0,0.0,74,0.00,,---,0.00,VWS V14.01,2013-08-04 02:38:00,
2013-08-03 22:40:00,62.0,53.6,30.10,North,0,0.0,0.0,74,0.00,,---,0.00,VWS V14.01,2013-08-04 02:40:00,
2013-08-03 22:43:00,62.1,53.3,30.10,NNE,16,0.0,0.0,73,0.00,,---,0.00,VWS V14.01,2013-08-04 02:43:00,
2013-08-03 22:48:00,62.1,53.3,30.10,North,5,0.0,0.0,73,0.00,,---,0.00,VWS V14.01,2013-08-04 02:48:00,
2013-08-03 22:50:00,62.1,53.3,30.10,North,0,0.0,0.0,73,0.00,,---,0.00,VWS V14.01,2013-08-04 02:50:00,
2013-08-03 22:53:00,62.3,53.9,30.10,North,360,0.0,0.0,74,0.00,,---,0.00,VWS V14.01,2013-08-04 02:53:00,
2013-08-03 22:58:00,62.6,53.8,30.10,NNW,331,0.0,0.0,73,0.00,,---,0.00,VWS V14.01,2013-08-04 02:58:00,
2013-08-03 23:00:00,62.6,53.8,30.10,North,0,0.0,0.0,73,0.00,,---,0.00,VWS V14.01,2013-08-04 03:00:00,
2013-08-03 23:03:00,62.7,53.5,30.10,North,360,0.0,0.0,72,0.00,,---,0.00,VWS V14.01,2013-08-04 03:03:00,
2013-08-03 23:08:00,62.9,53.4,30.10,North,360,0.0,0.0,71,0.00,,---,0.00,VWS V14.01,2013-08-04 03:08:00,
2013-08-03 23:10:00,62.9,53.8,30.10,North,0,0.0,0.0,72,0.00,,---,0.00,VWS V14.01,2013-08-04 03:10:00,
2013-08-03 23:13:00,62.9,54.1,30.10,North,350,0.0,0.0,73,0.00,,---,0.00,VWS V14.01,2013-08-04 03:13:00,
2013-08-03 23:18:00,62.9,54.5,30.11,West,267,0.0,0.0,74,0.00,,---,0.00,VWS V14.01,2013-08-04 03:18:00,
2013-08-03 23:20:00,62.7,54.3,30.11,North,0,0.0,0.0,74,0.00,,---,0.00,VWS V14.01,2013-08-04 03:20:00,
2013-08-03 23:23:00,62.7,53.9,30.11,North,360,0.0,0.0,73,0.00,,---,0.00,VWS V14.01,2013-08-04 03:23:00,
2013-08-03 23:28:00,62.6,53.8,30.11,North,360,0.0,0.0,73,0.00,,---,0.00,VWS V14.01,2013-08-04 03:28:00,
2013-08-03 23:30:00,62.6,53.5,30.11,North,0,0.0,0.0,72,0.00,,---,0.00,VWS V14.01,2013-08-04 03:30:00,
2013-08-03 23:33:00,62.4,53.3,30.11,North,360,0.0,0.0,72,0.00,,---,0.00,VWS V14.01,2013-08-04 03:33:00,
2013-08-03 23:38:00,62.4,52.9,30.11,North,360,0.0,0.0,71,0.00,,---,0.00,VWS V14.01,2013-08-04 03:38:00,
2013-08-03 23:40:00,62.6,53.5,30.11,North,0,0.0,0.0,72,0.00,,---,0.00,VWS V14.01,2013-08-04 03:40:00,
2013-08-03 23:43:00,62.4,53.3,30.11,North,360,0.0,0.0,72,0.00,,---,0.00,VWS V14.01,2013-08-04 03:43:00,
2013-08-03 23:48:00,62.3,52.8,30.11,North,360,0.0,0.0,71,0.00,,---,0.00,VWS V14.01,2013-08-04 03:48:00,
2013-08-03 23:50:00,62.3,52.8,30.11,North,0,0.0,0.0,71,0.00,,---,0.00,VWS V14.01,2013-08-04 03:50:00,
2013-08-03 23:53:00,62.3,52.8,30.11,North,360,0.0,0.0,71,0.00,,---,0.00,VWS V14.01,2013-08-04 03:53:00,
2013-08-03 23:58:00,62.3,52.8,30.11,North,360,0.0,0.0,71,0.00,,---,0.00,VWS V14.01,2013-08-04 03:58:00,